Location: Newark
(45.2678°N, 4.7433°E)
Time: 19:26:56
(UTC+00:00)

Envisat - Visible Passes

Search period start: 18 November 2019 00:00
Search period end: 28 November 2019 00:00
Orbit: 764 x 766 km, 98.1° (Epoch: 18 November)

Date Brightness Start Highest point End Pass type
(mag) Time Alt. Az. Time Alt. Az. Time Alt. Az.
18 Nov 6.5 05:02:25 10° ENE 05:03:09 10° E 05:03:52 10° E visible
18 Nov 3.5 17:54:28 10° S 17:59:29 63° WSW 18:04:33 10° NNW visible
19 Nov 4.7 06:01:20 10° NNE 06:06:05 38° E 06:10:48 10° SSE visible
19 Nov 3.0 17:17:44 10° SSE 17:22:44 62° ENE 17:27:46 10° N visible
19 Nov 5.7 18:58:50 10° SW 19:02:12 18° W 19:05:34 10° NW visible
20 Nov 5.9 05:25:30 10° NE 05:28:59 18° E 05:32:29 10° SE visible
20 Nov 3.7 16:41:47 10° SE 16:46:11 30° ENE 16:50:35 10° N visible
20 Nov 4.5 18:20:25 10° SSW 18:25:06 37° W 18:29:48 10° NNW visible
21 Nov 3.1 17:43:07 10° S 17:48:12 79° WSW 17:53:19 10° NNW visible
22 Nov 5.1 05:50:14 10° NNE 05:54:44 31° E 05:59:12 10° SSE visible
22 Nov 3.1 17:06:37 10° SE 17:11:30 50° ENE 17:16:24 10° N visible
22 Nov 5.4 18:46:55 10° SW 18:50:48 22° W 18:54:42 10° NW visible
23 Nov 6.1 05:14:48 10° NE 05:17:35 15° E 05:20:22 10° ESE visible
23 Nov 4.0 16:30:55 10° ESE 16:35:00 25° ENE 16:39:06 10° N visible
23 Nov 4.1 18:08:54 10° S 18:13:46 46° W 18:18:40 10° NNW visible
24 Nov 4.0 06:15:23 10° NNE 06:20:22 52° E 06:25:19 10° S visible
24 Nov 2.9 17:31:51 10° SSE 17:36:56 84° ENE 17:42:02 10° NNW visible
24 Nov 6.1 19:14:25 10° WSW 19:16:36 13° W 19:18:48 10° WNW visible
25 Nov 5.5 05:39:12 10° NE 05:43:22 25° E 05:47:30 10° SSE visible
25 Nov 3.4 16:55:35 10° SE 17:00:17 40° ENE 17:05:02 10° N visible
25 Nov 5.0 18:35:08 10° SSW 18:39:25 27° W 18:43:44 10° NW visible
26 Nov 6.3 05:04:31 10° ENE 05:06:09 11° E 05:07:48 10° ESE visible
26 Nov 3.6 17:57:27 10° S 18:02:26 58° W 18:07:28 10° NNW visible
27 Nov 4.5 06:04:13 10° NNE 06:09:03 42° E 06:13:50 10° SSE visible
27 Nov 2.9 17:20:39 10° SSE 17:25:40 68° ENE 17:30:44 10° N visible
27 Nov 5.8 19:02:05 10° SW 19:05:11 16° W 19:08:18 10° NW visible
